Theta_e
340 337 337 338 337 337 337 338 341 339 339 338 337 336 336 334 333 333 332 332 331 331
337 338 336 338 339 337 339 337 338 338 337 337 336 336 336 332 333 333 333 330 327 324
337 338 338 338 337 337 338 337 337 336 337 336 336 335 335 333 334 333 332 328 324 325
335 336 337 337 337 338 338 337 336 335 335 335 334 334 333 334 332 330 331 327 330 325
335 335 336 335 336 337 337 337 334 334 334 333 332 333 333 331 331 330 330 329 328 322
334 334 334 335 336 336 336 336 335 335 333 331 332 333 333 331 331 332 331 329 327 326
333 334 335 336 336 335 335 335 335 333 332 332 332 332 331 332 333 332 331 329 327 329
333 334 334 335 335 335 334 334 333 332 332 333 332 331 333 333 332 331 330 330 331 328
332 332 333 334 334 335 334 333 333 332 331 330 329 307 313 325 331 331 329 326 329 327
331 331 332 333 333 333 334 335 333 333 328 326 321 303 304 313 332 331 326 326 328 327
330 330 332 332 332 332 333 333 331 329 325 324 321 301 302 309 332 331 328 326 328 329
329 330 331 331 332 332 331 331 328 325 323 323 326 301 302 314 331 327 325 326 328 324
330 330 331 332 331 332 331 330 327 324 324 316 329 302 301 316 327 324 323 324 322 309
331 332 333 332 332 332 330 329 328 327 326 328 325 320 302 307 326 324 323 322 321 316
Wind_Speed
12 8 8 8 8 6 6 6 8 7 6 7 7 7 7 6 6 6 6 6 6 3
10 10 9 9 8 7 6 6 7 7 7 8 8 8 8 5 6 6 5 4 4 2
10 10 10 9 9 8 7 7 7 7 8 9 8 8 7 5 5 4 3 3 4 4
10 10 9 8 7 7 7 7 7 8 9 9 8 7 6 5 4 4 3 4 7 5
10 9 8 7 7 7 7 7 8 8 8 8 7 7 6 5 4 5 5 5 4 4
10 9 8 8 7 7 8 8 7 8 8 8 8 8 6 4 5 5 5 5 5 7
9 8 8 8 7 7 8 8 8 7 8 7 6 6 5 4 4 4 4 4 2 4
9 8 8 8 7 7 8 8 7 7 5 5 6 4 5 4 4 5 5 5 5 3
9 9 8 8 7 8 8 7 7 6 7 6 3 4 5 5 5 5 5 5 6 6
10 9 8 8 7 8 8 7 7 7 7 6 5 5 6 5 6 6 5 5 6 6
9 9 9 8 8 7 6 6 5 7 6 6 4 3 6 4 5 6 6 4 3 4
10 9 9 9 8 7 7 7 6 6 6 6 5 3 5 5 5 6 5 4 4 3
10 9 9 8 8 6 7 7 7 7 6 5 6 4 2 2 4 6 4 4 4 5
10 9 9 9 7 7 7 7 7 7 6 6 4 4 3 4 3 4 4 3 3 2
Wind_Direction
135 146 153 154 155 157 166 166 160 163 167 175 182 175 185 197 203 199 205 200 210 204
137 143 143 142 147 148 142 146 159 171 177 183 178 180 185 192 189 192 197 187 178 177
138 136 134 136 133 143 145 147 154 167 177 173 175 184 180 181 175 184 190 184 170 180
128 126 127 133 141 146 146 152 165 168 170 169 176 170 179 186 158 191 166 175 203 182
131 132 134 140 140 145 144 160 161 164 162 166 167 173 185 178 168 186 203 186 179 183
137 141 143 140 138 145 153 158 161 162 159 166 170 176 177 175 181 201 185 201 212 197
145 145 142 141 147 154 159 158 160 153 158 173 173 178 167 182 158 144 156 188 182 232
143 140 140 147 153 154 165 159 153 159 153 165 162 165 164 137 134 147 145 149 138 126
146 146 150 151 154 165 161 155 155 155 136 123 124 104 118 145 137 141 152 155 144 121
153 156 155 154 159 159 159 159 157 135 122 124 112 93 132 142 119 122 142 151 158 156
160 157 155 161 152 141 151 140 140 124 119 121 107 119 151 157 131 125 129 144 174 196
166 162 162 159 145 134 142 138 134 128 130 124 126 162 168 197 142 125 120 133 139 139
172 173 160 150 144 137 147 142 136 133 120 119 136 176 203 164 121 125 121 114 97 107
177 172 153 143 143 148 147 138 138 127 128 132 134 113 98 82 112 129 130 133 123 127